Погода в Сергеевке

Казахстан     53°52′52″N   67°24′51″E
темп.,
°C
ветер,
м/с
пор.,
м/с
влажн.,
%
обл.,
%
осадки,
мм/ч
давл.,
гПа
погр.,
м
1 марта, пн
пн100:00−9св6995100 2.1 1005312
03:00−11св5895100 0.9 1005261
06:00−13ссв4795100 1.3 1007247
09:00−15с369694 0.1 1009218
12:00−14с349490 0.3 1012251
15:00−13ссз339299 0.1 1013315
18:00−15сз239699 0.1 101549
21:00−19сз229898 0.0 101620
2 марта, вт
вт200:00−21з129989 0.1 101820
03:00−18зюз229797 0.1 101752
06:00−18зюз229898 0.3 101728
09:00−17юз239794 0.2 101675
12:00−15юз349484 0.3 1015253
15:00−13юз359297 0.0 1014338
18:00−14ююз369599 0.1 1013132
21:00−16ююз499673 0.0 1013175
3 марта, ср
ср300:00−15ююз6139481 0.1 1013393
03:00−18ююз7139395 0.0 1012332
06:00−17ююз7139498 0.1 1011413
09:00−15юз71392100 0.3 1010511
12:00−13ююз81491100 0.3 1010541
15:00−9ююз81491100 0.1 1008648
18:00−7ююз81592100 0.6 1007753
21:00−4ююз81688100 0.1 1006691
4 марта, чт
чт400:00−3юз71590100 0.1 1006674
03:00−3юз71493100 0.3 1004642
06:00−2ююз71494100 0.6 1003656
09:00−2ююз71396100 0.5 1001750
12:000юз71198100 1.4 1000788
15:000зюз61097100 0.8 1001769
18:00−2з5992100 1.2 1003641
21:00−10з4109233 0.0 1005182
5 марта, пт
пт500:00−13зюз479317 0.0 1008102
03:00−14юз48920 0.0 1009131
06:00−13ююз612900 0.0 1009252
09:00−11юз9188755 0.0 1008550
12:00−9юз11199177 0.1 1007746
15:00−4юз122092100 0.5 10071126
18:00−2юз121987100 0.8 10071150
21:00−1зюз101788100 0.1 1009991